This demonstration page uses our WeatherBlox Daily Observations layout. Learn more.

Left ArrowRight Arrow

Hourly Observations for May 20, 2021

Temp ( °F °C ) Dew Point ( °F °C ) Humidity (%) Winds ( mph kmh ) Pressure ( in mb ) Visibility ( mi km ) Precip ( " mm )
12:53 am 00:53 Partly Cloudy 71 21.7 59 15 66 66 SE 13 20 30.27 1025 10 16 0.00 0.00
1:53 am 01:53 Clear 70 21.1 59 15 68 68 ESE 8 13 30.28 1025 10 16 0.00 0.00
2:53 am 02:53 Clear 68 20 59 15 73 73 E 5 7 30.28 1025 10 16 0.00 0.00
3:53 am 03:53 Clear 67 19.4 59 15 76 76 E 5 7 30.28 1025 10 16 0.00 0.00
4:53 am 04:53 Clear 66 18.9 59 15 78 78 SE 6 9 30.29 1026 10 16 0.00 0.00
5:53 am 05:53 Clear 65 18.3 59 15 81 81 ESE 5 7 30.30 1026 10 16 0.00 0.00
6:53 am 06:53 Sunny 64 17.8 59 15 84 84 E 7 11 30.31 1027 10 16 0.00 0.00
7:53 am 07:53 Sunny 66 18.9 59 15 78 78 E 5 7 30.33 1027 10 16 0.00 0.00
8:53 am 08:53 Sunny 68 20 59 15 73 73 ESE 7 11 30.34 1028 10 16 0.00 0.00
9:53 am 09:53 Sunny 71 21.7 58 14.4 63 63 ESE 7 11 30.35 1028 10 16 0.00 0.00
10:53 am 10:53 Sunny 74 23.3 55 12.8 52 52 ESE 13 20 30.34 1028 10 16 0.00 0.00
11:53 am 11:53 Partly Cloudy 76 24.4 55 12.8 48 48 SE 17 28 30.34 1027 10 16 0.00 0.00
12:53 pm 12:53 Mostly Cloudy 77 25 53 11.7 43 43 ESE 12 19 30.33 1027 10 16 0.00 0.00
1:53 pm 13:53 Partly Cloudy 79 26.1 52 11.1 39 39 SE 13 20 30.32 1027 10 16 0.00 0.00
2:53 pm 14:53 Mostly Sunny 80 26.7 52 11.1 38 38 ESE 10 17 30.30 1026 10 16 0.00 0.00
3:53 pm 15:53 Mostly Sunny 81 27.2 52 11.1 37 37 SE 12 19 30.29 1026 10 16 0.00 0.00
4:53 pm 16:53 Mostly Sunny 81 27.2 51 10.6 35 35 E 10 17 30.27 1025 10 16 0.00 0.00
5:53 pm 17:53 Sunny 81 27.2 52 11.1 37 37 ESE 8 13 30.27 1025 10 16 0.00 0.00
6:53 pm 18:53 Mostly Sunny 80 26.7 51 10.6 37 37 SE 12 19 30.27 1025 10 16 0.00 0.00
7:53 pm 19:53 Sunny 78 25.6 52 11.1 40 40 ESE 7 11 30.28 1025 10 16 0.00 0.00
8:53 pm 20:53 Clear 76 24.4 52 11.1 43 43 E 3 6 30.29 1026 10 16 0.00 0.00
9:53 pm 21:53 Clear 74 23.3 53 11.7 48 48 E 5 7 30.29 1026 10 16 0.00 0.00
10:53 pm 22:53 Clear 73 22.8 53 11.7 50 50 E 7 11 30.31 1026 10 16 0.00 0.00
11:53 pm 23:53 Clear 73 22.8 52 11.1 48 48 E 7 11 30.32 1027 10 16 0.00 0.00

Powered by AerisWeather